SCP
0 0 0 0 0 0 0 0 0 0 0 0 0 0 0 0 1 1 1 1 1 1 1 1 1 1 1 1 1 1 1 1 1 1 1 1 0 0 0 0 0 0 0 0
0 0 0 0 0 0 0 0 0 0 0 0 0 0 0 0 1 1 1 1 1 1 1 1 1 1 1 1 1 1 1 1 1 1 1 0 0 0 0 0 0 0 0 0
0 0 0 0 0 0 0 0 0 0 0 0 0 0 0 0 1 1 1 1 1 1 1 0 0 1 1 1 1 1 1 1 1 1 0 0 0 0 0 0 0 0 0 0
0 0 0 0 0 0 0 0 0 0 0 0 0 0 0 0 1 1 1 1 1 1 0 0 0 0 1 1 1 1 1 1 1 1 0 0 0 0 0 0 0 0 0 0
0 0 0 0 0 0 0 0 0 0 0 0 0 0 0 0 0 0 1 1 0 0 0 0 0 0 0 0 1 1 1 1 1 0 0 0 0 0 0 0 0 0 0 0
0 0 0 0 0 0 0 0 0 0 0 0 0 0 0 0 0 0 0 0 0 0 0 0 0 0 0 0 1 1 1 1 1 0 0 0 0 0 0 0 0 0 0 0
0 0 0 0 0 0 0 0 0 0 0 0 0 0 0 0 0 1 0 0 0 0 0 0 0 0 0 0 0 0 0 0 0 0 0 0 0 0 0 0 0 0 0 0
0 0 0 0 0 0 0 0 0 0 0 0 0 0 0 0 1 1 0 0 0 0 0 0 0 0 0 0 0 0 0 0 0 0 0 0 0 0 1 1 1 1 0 0
0 0 0 0 0 0 0 0 0 0 0 0 0 0 0 0 1 1 1 0 0 0 0 0 0 0 0 0 0 0 0 0 0 0 0 0 0 1 1 1 1 1 0 0
0 0 0 0 0 0 0 0 0 0 0 0 0 0 0 0 1 1 1 1 0 0 0 0 0 0 0 0 0 0 0 0 0 0 0 0 0 1 1 1 1 1 0 0
0 0 0 0 0 0 0 0 0 0 0 0 0 0 0 0 0 1 1 1 1 0 0 0 0 0 0 0 0 0 0 0 0 0 0 0 0 0 0 0 0 0 0 0
0 0 0 0 0 0 0 0 0 0 0 0 0 0 0 0 0 0 1 1 0 0 0 0 0 0 0 0 0 0 0 0 0 0 0 0 0 0 0 0 0 0 0 0
0 0 0 0 0 0 0 0 0 0 0 0 0 0 0 0 0 0 0 0 0 0 0 0 0 0 0 0 0 0 0 0 0 0 0 0 0 0 0 0 0 0 0 0
0 0 0 0 0 0 0 0 0 0 0 0 0 0 0 0 0 0 0 0 0 0 0 0 0 0 0 0 0 0 0 0 0 0 0 0 0 0 0 0 0 0 0 0
0 0 0 0 0 0 0 0 0 0 0 0 0 0 0 0 0 0 0 0 0 0 0 0 0 0 0 0 0 0 0 0 0 0 0 0 0 0 0 0 0 0 0 0
0 0 0 0 0 0 0 0 0 0 0 0 0 0 0 0 0 0 0 0 0 0 0 0 0 0 0 0 0 0 0 0 0 0 0 0 0 0 0 0 0 0 0 0
0 0 0 0 0 0 0 0 0 0 0 0 0 0 0 0 0 0 0 0 0 0 0 0 0 0 0 0 0 0 0 0 0 0 0 0 0 0 0 0 0 0 0 0
0 0 0 0 0 0 0 0 0 0 0 0 0 0 0 0 0 0 0 0 0 0 0 0 0 0 0 0 0 0 0 0 0 0 0 0 0 0 0 0 0 0 0 0
0 0 0 0 0 0 0 0 0 0 0 0 0 0 0 0 0 0 0 0 0 0 0 0 0 0 0 0 0 0 0 0 0 0 0 0 0 0 0 0 0 0 0 0
0 0 0 0 0 0 0 0 0 0 0 0 0 0 0 0 0 0 0 0 0 0 0 0 0 0 0 0 0 0 0 0 0 0 0 0 0 0 0 0 0 0 0 0
0 0 0 0 0 0 0 0 0 0 0 0 0 0 0 0 0 0 0 0 0 0 0 0 0 0 0 0 0 0 0 0 0 0 0 0 0 0 0 0 0 0 0 0
0 0 0 0 0 0 0 0 0 0 0 0 0 0 0 0 0 0 0 0 0 0 0 0 0 0 0 0 0 0 0 0 0 0 0 0 0 0 0 0 0 0 0 0
0 0 0 0 0 0 0 0 0 0 0 0 0 0 0 0 0 0 0 0 0 0 0 0 0 0 0 0 0 0 0 0 0 0 0 0 0 0 0 0 0 0 0 0
0 0 0 0 0 0 0 0 0 0 0 0 0 0 0 0 0 0 0 0 0 0 0 0 0 0 0 0 0 0 0 0 0 0 0 0 0 0 0 0 0 0 0 0
0 0 0 0 0 0 0 0 0 0 0 0 0 0 0 0 0 0 -0 -0 -0 0 0 0 0 0 0 0 0 0 0 0 0 0 0 0 0 0 0 0 0 0 0 0
0 0 0 0 0 0 0 0 0 0 0 0 0 0 0 0 0 -0 -0 -0 -0 -0 0 0 0 0 0 0 0 0 0 0 0 0 0 0 0 0 0 0 0 0 0 0
0 0 0 0 0 0 0 0 0 0 0 0 0 0 0 0 0 -0 -0 -0 -0 -0 0 0 0 0 0 0 0 0 0 0 0 0 0 0 0 0 0 0 0 0 0 0
Wind_Speed
3 2 3 3 5 6 5 8 8 7 6 7 5 3 2 2 3 4 4 4 4 3 2 3 3 3 3 2 2 3 4 4 4 3 2 2 2 2 2 2 2 2 1 1
1 1 3 2 2 5 4 4 4 4 5 4 2 1 2 2 3 4 3 3 3 3 2 2 2 3 3 2 2 3 4 3 3 3 3 3 2 2 2 2 2 2 1 1
1 1 3 0 2 3 3 3 6 6 6 2 2 3 3 3 3 3 3 3 3 2 1 1 1 2 2 2 3 3 3 3 2 2 3 2 3 2 2 1 1 1 1 1
3 3 3 6 2 3 4 1 3 3 3 5 4 3 2 2 3 3 3 3 3 3 2 2 2 2 3 3 3 3 3 2 2 3 2 2 3 2 1 1 1 1 1 1
4 3 2 3 1 3 3 2 2 4 3 3 3 4 2 1 2 3 3 3 3 3 3 2 2 2 3 3 3 3 2 2 2 2 3 2 2 2 1 1 1 1 1 2
5 4 5 6 2 1 4 2 3 4 5 5 5 3 3 1 1 2 3 3 4 4 4 3 2 2 4 3 3 2 2 2 2 3 3 2 2 1 1 2 1 2 2 2
4 3 5 5 4 1 4 7 3 5 6 6 5 4 4 3 3 3 4 3 4 5 4 2 2 3 4 3 2 1 2 3 3 3 3 2 2 2 2 2 3 3 3 2
4 3 6 3 1 4 5 2 1 3 4 4 4 4 5 4 4 4 4 4 4 4 3 2 2 4 4 2 1 2 3 4 4 3 2 2 3 3 3 3 3 3 3 3
6 6 4 2 2 3 2 1 1 2 4 6 5 4 4 3 4 3 4 3 3 4 4 3 3 3 3 1 2 4 4 4 3 3 3 3 3 3 3 2 2 2 2 2
1 3 2 2 1 2 0 1 1 3 4 6 6 5 4 3 3 3 3 3 3 4 4 3 3 3 2 2 3 4 5 4 4 4 4 4 3 2 3 2 2 2 3 3
1 3 2 3 1 1 0 2 3 3 3 4 6 5 5 4 4 4 3 3 3 3 4 3 2 3 2 2 4 5 5 4 4 4 4 4 5 4 3 3 1 2 2 3
6 6 4 4 3 1 1 2 3 4 2 2 4 5 4 4 3 3 3 3 4 3 3 2 2 2 2 2 4 5 5 4 3 3 3 4 5 5 10 7 8 7 6 4
4 3 3 3 2 1 1 2 2 3 3 3 2 4 4 3 3 3 3 3 4 3 3 2 2 1 1 2 4 4 5 4 3 3 3 3 3 4 4 6 10 10 9 8
3 2 1 2 2 1 2 2 2 2 2 2 3 3 4 3 3 3 3 3 3 3 3 3 2 1 1 2 4 4 4 4 4 3 3 3 3 3 3 4 4 4 6 8
3 4 4 3 2 1 2 3 3 2 2 2 3 3 4 4 4 3 3 3 3 3 3 3 2 1 1 3 4 4 4 3 3 3 3 3 3 4 3 4 4 4 3 4
2 1 3 3 4 3 3 3 4 4 3 3 4 4 5 5 4 3 2 3 4 4 3 3 3 2 2 4 4 4 3 6 5 4 4 4 3 4 4 3 3 3 3 3
3 3 4 4 5 5 4 4 5 5 4 4 5 5 5 5 4 3 3 2 3 3 3 4 4 3 3 4 4 4 4 4 6 4 3 3 3 4 4 4 3 3 2 2
6 6 5 6 6 5 4 4 4 5 5 5 5 5 5 5 5 5 4 3 2 2 2 3 3 3 3 4 4 3 4 4 3 3 3 3 3 3 4 4 4 4 3 3
4 5 4 5 5 5 5 5 4 4 4 4 5 5 5 5 5 4 4 4 4 4 3 3 5 4 3 4 4 3 4 4 4 3 3 4 3 3 3 3 4 4 4 3
3 3 3 3 4 4 5 4 4 4 4 5 5 5 5 4 4 4 4 3 3 3 3 4 5 4 4 5 5 3 4 4 4 4 4 3 3 3 4 4 4 4 4 3
3 3 3 3 3 3 4 5 5 5 5 5 6 6 5 4 4 4 4 3 2 3 4 5 4 4 4 5 5 4 4 4 4 4 4 4 4 4 4 4 4 4 4 3
2 2 3 3 2 2 2 3 4 4 4 4 5 5 5 5 4 3 3 3 2 4 3 3 3 4 6 6 4 4 4 4 4 4 4 4 4 4 4 4 4 4 3 3
2 2 2 2 3 3 2 2 3 4 4 4 5 5 5 4 4 4 3 2 2 4 3 3 4 6 7 5 4 4 4 4 4 4 4 4 4 4 5 5 4 4 4 4
0 1 1 1 2 3 2 2 2 3 3 3 3 4 4 3 2 2 2 4 5 5 3 4 6 7 6 3 3 4 3 3 3 3 4 4 4 4 4 5 4 4 4 4
0 1 1 2 2 2 2 2 2 2 3 2 2 2 2 3 3 3 3 4 5 5 3 4 6 6 4 3 4 4 4 4 4 4 4 4 4 4 4 4 4 4 4 4
1 1 1 1 1 1 1 2 2 2 2 2 1 1 2 2 3 3 3 4 5 5 4 3 3 4 3 3 4 4 3 4 4 4 4 4 5 5 4 4 5 4 4 4
1 1 1 1 1 1 1 2 2 2 2 3 2 2 2 3 4 4 4 4 4 4 3 3 3 3 3 4 4 4 4 4 4 4 4 4 4 4 4 5 4 4 4 4
Wind_Direction
192 193 156 146 156 159 157 167 168 205 209 235 233 228 216 139 112 106 107 112 118 123 124 122 121 113 119 134 139 138 142 155 172 173 164 157 149 152 152 151 162 163 156 160
75 15 141 112 138 161 160 161 172 168 231 243 230 137 116 121 127 124 129 125 117 109 109 122 131 130 131 136 140 139 143 151 150 142 135 137 134 134 138 144 142 127 139 143
171 292 83 293 220 170 162 176 164 187 220 185 156 168 171 161 149 150 143 128 123 118 122 115 121 127 135 139 129 129 135 133 123 132 130 131 128 121 140 153 131 126 126 129
121 112 184 239 264 156 141 173 192 189 191 178 177 161 123 133 154 150 136 128 130 118 94 72 72 85 95 99 110 115 110 106 116 122 121 120 116 122 141 130 131 145 143 140
113 141 253 293 194 156 151 251 223 175 167 143 116 86 45 59 122 150 140 135 127 113 105 88 83 102 102 100 107 110 114 122 120 126 121 119 127 142 160 140 132 132 121 118
114 134 209 237 265 254 120 270 241 175 169 157 126 136 228 189 96 99 99 105 112 106 101 100 85 98 104 101 101 110 132 129 110 109 110 118 134 131 123 131 133 108 88 89
130 161 252 257 296 95 156 231 217 182 179 168 172 191 165 135 111 110 106 105 103 105 103 102 101 103 101 99 103 119 109 97 88 93 114 122 110 97 93 111 110 109 99 82
136 157 240 289 34 168 216 251 158 169 169 152 143 125 128 132 123 110 102 95 95 98 87 73 87 101 95 92 97 95 95 91 89 93 104 103 103 101 103 112 115 115 110 95
180 201 237 273 233 258 219 198 189 161 145 136 134 138 134 127 117 101 96 91 87 97 85 56 56 91 103 105 106 102 93 85 80 81 82 88 107 115 107 109 119 125 123 116
204 261 276 293 303 327 277 195 159 147 145 142 146 144 133 137 126 120 106 102 95 93 85 58 45 66 93 111 110 106 98 88 81 80 77 73 76 86 105 113 119 126 128 125
225 269 325 321 295 269 34 92 100 102 116 138 141 145 152 151 143 138 128 116 104 99 91 69 51 57 67 91 105 105 100 96 90 86 88 83 72 54 56 52 80 127 131 137
210 214 192 242 264 230 156 150 143 130 115 123 143 149 149 152 152 145 137 127 114 107 102 87 67 59 54 87 107 112 107 100 98 98 97 102 100 74 50 53 57 66 82 103
219 207 194 227 263 240 182 173 153 145 151 143 134 139 144 150 152 142 139 133 137 136 126 113 89 67 53 95 108 113 117 115 109 108 110 111 112 112 93 57 55 58 66 81
214 174 202 225 222 206 154 143 124 118 134 146 151 141 133 139 148 149 161 165 155 145 137 129 114 93 80 119 117 115 117 116 117 118 116 113 115 113 113 113 93 59 50 65
233 206 206 215 199 181 154 137 134 155 163 156 155 154 153 161 169 173 174 160 143 140 142 141 138 137 107 125 127 125 122 120 114 111 107 107 108 107 105 105 105 99 85 64
242 209 187 189 202 203 190 180 182 201 195 182 177 176 176 171 166 165 176 170 159 168 175 160 170 179 145 133 132 129 125 127 124 119 114 112 115 119 118 117 117 117 116 110
199 223 213 206 215 222 217 212 205 207 201 192 191 179 164 155 156 166 184 200 182 178 180 175 177 169 152 145 141 137 132 131 125 118 123 130 133 135 136 135 130 123 116 116
215 220 221 213 212 216 221 218 209 202 198 194 178 167 168 171 179 181 182 184 171 169 183 172 164 157 152 148 141 136 135 136 136 134 131 131 134 136 136 136 136 131 118 110
219 224 231 228 225 216 215 215 208 202 192 179 175 183 186 188 185 180 176 176 181 195 203 164 153 153 156 152 140 138 140 139 136 134 134 135 136 141 142 143 143 142 136 130
225 221 225 239 241 219 209 204 192 188 189 183 179 183 189 190 182 178 178 196 215 206 186 171 161 162 161 151 147 149 151 152 151 150 148 152 155 155 153 152 151 149 143 142
235 229 226 231 243 219 199 192 185 192 197 187 184 188 189 188 182 178 177 201 227 186 170 168 167 168 161 156 156 160 162 160 158 160 161 162 162 158 155 152 151 150 148 147
239 229 227 219 209 207 193 180 180 181 180 178 177 174 172 177 176 178 194 200 194 167 164 169 170 166 162 158 159 164 165 165 164 164 165 165 165 161 157 155 153 151 150 151
234 217 210 217 207 188 168 167 173 172 177 182 179 177 177 183 181 177 196 196 171 168 165 170 168 163 161 160 161 164 165 168 169 170 166 164 166 162 157 157 152 147 149 147
222 186 198 210 158 144 155 185 173 170 171 176 180 177 169 165 176 193 177 168 171 167 167 167 166 163 159 154 153 154 158 162 161 157 150 148 149 151 152 151 148 145 147 148
137 146 148 142 139 164 163 143 120 124 131 134 147 165 170 168 169 168 157 162 160 154 150 154 160 161 155 147 149 153 158 162 157 150 147 145 146 146 147 147 146 145 148 152
99 112 137 155 157 157 147 131 127 136 131 125 121 139 142 142 145 140 135 139 140 136 134 138 151 151 146 145 147 148 147 144 141 139 142 143 143 144 144 145 145 147 151 156
73 76 76 69 70 124 144 138 139 147 148 146 144 143 135 129 127 126 125 123 123 123 122 125 126 122 122 125 128 129 130 130 131 133 138 140 141 143 147 149 149 150 152 155